Theta_e
323 326 328 328 326 325 326 326 329 334 343 343 343 342 342 339 337 339 342 342 338 335
324 323 322 323 324 331 329 330 330 332 335 340 343 341 340 338 337 341 344 344 344 342
322 325 324 325 325 326 328 331 331 331 330 333 336 348 350 348 348 346 349 350 349 348
315 320 324 326 327 328 329 330 332 333 334 333 333 337 349 350 350 348 349 350 348 346
315 316 318 319 321 323 324 329 331 334 333 334 335 334 336 344 349 347 347 347 346 344
312 314 318 318 320 323 324 324 326 329 331 332 335 335 336 340 341 343 348 347 344 343
310 313 312 314 315 318 321 322 322 324 327 329 330 334 336 337 343 343 346 346 344 343
311 312 312 313 313 314 316 317 320 321 323 327 329 331 334 336 337 344 344 342 345 343
309 310 310 310 311 312 313 315 319 322 322 323 326 318 316 320 337 343 343 341 343 340
309 309 309 309 308 309 310 311 313 316 319 322 326 314 312 314 324 339 342 339 337 334
307 307 306 306 307 307 308 310 312 314 318 324 327 313 310 311 322 337 339 339 338 333
307 306 306 305 305 305 306 308 311 314 318 323 327 313 310 310 323 334 338 338 337 335
306 306 305 305 304 306 308 310 312 315 317 320 324 314 307 308 326 334 335 333 330 317
305 305 305 305 305 305 305 309 313 317 322 323 323 326 309 303 326 335 331 328 323 320
Wind_Speed
6 3 4 3 1 5 3 4 4 4 6 8 11 16 13 9 9 10 11 14 11 9
6 5 5 5 4 4 4 3 4 5 6 7 12 16 15 11 10 12 13 14 13 12
7 7 6 5 7 7 6 5 5 7 6 7 9 11 13 11 11 12 9 9 12 11
6 5 5 5 6 5 4 6 6 7 8 7 7 9 11 12 10 11 12 11 10 11
6 3 3 4 4 5 6 6 5 6 6 9 10 10 11 13 11 12 11 12 10 11
4 4 3 3 4 5 5 7 7 10 9 10 10 13 13 13 14 11 11 12 12 12
4 4 3 4 4 5 6 9 10 9 11 14 13 13 14 14 13 13 12 10 11 11
4 4 5 5 6 7 6 10 13 14 13 12 10 10 14 14 16 12 11 9 12 10
4 4 5 6 6 7 8 10 12 13 13 15 12 14 17 16 13 11 12 12 11 8
5 6 6 6 7 8 10 9 13 14 14 16 16 14 17 20 10 13 12 10 8 6
5 6 6 8 9 9 10 12 12 14 15 14 14 14 17 20 9 13 12 10 12 10
9 12 13 15 16 15 15 17 15 14 15 14 14 14 17 11 9 13 12 10 13 13
10 11 10 10 10 10 9 14 13 15 14 14 11 15 16 11 8 12 8 5 8 13
8 13 15 16 15 14 14 13 13 14 10 8 10 14 16 16 11 9 7 7 4 4
Wind_Direction
239 239 234 223 235 268 204 237 266 246 224 237 225 239 234 216 221 227 227 228 218 213
221 223 232 226 218 243 270 241 241 234 242 233 231 236 230 227 231 230 223 227 230 221
226 229 234 227 232 237 242 244 263 272 248 239 264 257 231 227 223 225 221 227 229 228
220 218 221 221 235 240 247 246 243 245 259 259 253 262 256 238 226 221 227 228 213 214
225 233 262 260 266 269 272 277 266 271 266 267 260 256 251 249 239 232 229 226 207 213
210 191 198 262 303 310 294 286 286 276 267 268 273 260 256 250 242 235 233 223 205 211
221 206 233 270 271 268 271 282 276 268 275 273 265 275 261 255 243 237 236 215 204 204
190 206 215 237 262 268 266 271 269 271 270 266 267 273 275 253 247 229 223 212 211 207
226 231 236 248 244 247 258 263 264 263 268 274 269 263 274 269 244 230 222 223 213 211
233 243 251 246 244 255 258 256 259 261 261 261 261 255 265 268 257 240 217 205 194 174
250 261 256 255 259 262 256 256 258 261 262 253 253 248 261 267 258 252 213 199 176 162
243 249 249 250 255 258 265 264 257 258 255 249 250 248 257 260 251 247 213 187 169 155
251 257 254 252 258 263 267 267 256 256 254 241 247 256 258 225 240 233 190 144 152 147
249 255 256 255 257 254 250 269 264 248 247 239 248 262 250 214 219 211 151 137 149 126